STARLINK-1788, 46689

Orbit data source: Space-Track

STARLINK-1788, 46689 is a payload satellite owned by SpaceX/Seattle (US) in LEO that was launched on Sun, 18 Oct 2020 UTC via an FALCON 9 launch vehicle from the Air Force Eastern Test Range (AFETR). Payload-class satellites include a variety of spacecraft equipped with specific instruments for various scientific and technological missions. These include communications satellites like Starlink; space stations such as the ISS; scientific satellites like the Hubble; Earth observation satellites from companies like Planet Labs, Umbra, and HawkEye 360; GPS; miniature CubeSats for education and research; and military/defense satellites.

Not visible in the next 10 days
Identifier
46689, 2020-073V
Orbit
LEO
Country
Flag of USUS
Related business
Manufacturer
SpaceX/Seattle
Mission
Partially operational Commercial Communications
Bus & Motor
STARLINK, Unknown motor
Mass
260 kg wet, ~248 kg dry
Launch date (UTC)
2020-10-18 (6 years ago)
Launch vehicle
FALCON 9
Launch site
Air Force Eastern Test Range (AFETR)
Object type
Payload
Rocket body
Debris
Shape & HBR
Box + 1 Pan, 10.1 m
Radar Cross Section
13.562 m², Large (>1 m²)

Expand to show TLE details & history
Last TLE update: 5 hours ago

TLE from 5 hours ago
0 STARLINK-1788
1 46689U 20073V   26123.83335647  .00085565  00000-0  58051-3 0  9999
2 46689  53.0376 306.4462 0003005 230.8262 239.4121 15.74266165  6017
Epoch: 2026-05-03T20:00Z
TLE epoch observation values (Epoch: 2026-05-03T20:00:01.999Z)
Latitude
48.72699°
Longitude
-93.78672°
Altitude
353.248 km
Speed
7.703 km/s
True Right ascension
04h 31m 48s
True Declination
48° 32' 46"
Sunlit
Object was in daylight at epoch
Visualization orbit readout
Latitude
Unknown
Longitude
Unknown
Altitude
Unknown
Speed
Unknown
Apparent Right ascension
Unknown
Apparent Declination
Unknown
Sunlit
N/A
Visualization observer readout
Local Sidereal Time
08:43:05
Azimuth
Unknown
Elevation
Unknown
Doppler factor
Unknown
Orbital elements
Apogee altitude
349.022 km
Perigee altitude
344.981 km
Semi-major axis
6,725.139 km
Eccentricity
0.0003
Inclination
53.0376°
RAAN
306.4462°
Arg. of periapsis
230.8262°
True anomaly
239.38246°
Mean anomaly
239.4121°
Eccentric anomaly
239.39728°
Mean motion
3.93542 °/min
Orbital period
91.48 mins
BSTAR
0.00058051
Loading maneuver chart data...
Computing Atmospheric mass density...
Loading historical data...
Loading historical data...
Loading historical data...
Loading historical data...
Loading historical data...
Loading historical data...
Loading historical data...

Documentation

Showing up to 5 results
|